Location: Cortada de Papelón
(10.0378°N, 66.9528°W)
Time: 16:11:08
(UTC+00:00)

ASTRO E2 - Pass Details

Date: 13 June 2024
Orbit: 419 x 420 km, 31.4° (Epoch: 21 July)

Event Time Altitude Azimuth Distance (km) Brightness Sun altitude
Rises 23:08:18 0° 247° (WSW) 2,407 6.8 -5.1°
Reaches altitude 10° 23:10:29 10° 253° (WSW) 1,539 5.9 -5.6°
Maximum altitude 23:13:55 50° 329° (NNW) 564 3.3 -6.4°
Drops below altitude 10° 23:17:20 10° 46° (NE) 1,537 4.9 -7.1°
Enters shadow 23:21:40 -7° 54° (NE) 3,262 6.5 -8.1°
